Tracking 19920 objects as of 15-Oct-2019
HD Live streaming from Space Station
objects crossing your sky now

TELSTAR 302

Track TELSTAR 302 now!
TELSTAR 302 is classified as:


NORAD ID: 15237
Int'l Code: 1984-093D
Perigee: 35,924.3 km
Apogee: 35,936.5 km
Inclination: 15.2 °
Period: 1,443.1 minutes
Semi major axis: 42301 km
RCS: 4.6276 m2 (large)
Launch date: August 30, 1984
Source: United States (US)
Launch site: AIR FORCE EASTERN TEST RANGE (AFETR)
aabbcc
Your satellite tracking list
Your tracking list is empty




NASA's NSSDC Master Catalog

Two Line Element Set (TLE):
1 15237U 84093D   19286.96767138 -.00000188 +00000-0 +00000-0 0  9993
2 15237 015.2328 005.2791 0001439 032.8835 320.5581 00.99786176022125
Source of the keplerian elements: AFSPC